Hourly Weather Potosi

Today, 14 July, Tuesday

Time Temperature Precipitation Wind Pressure Humidity
00:00 +3°C° 0 mm 1 mps 465 mmHg 37%
01:00 +3°C° 0 mm 1 mps 465 mmHg 41%
02:00 +2°C° 0 mm 1 mps 464 mmHg 46%
03:00 +2°C° 0 mm 1 mps 464 mmHg 50%
04:00 -1°C° 0 mm 2 mps 464 mmHg 54%
05:00 -1°C° 0 mm 2 mps 463 mmHg 59%
06:00 +1°C° 0 mm 1 mps 464 mmHg 57%
07:00 +2°C° 0 mm 1 mps 465 mmHg 54%
08:00 +3°C° 0 mm 1 mps 466 mmHg 52%
09:00 +5°C° 0 mm 1 mps 467 mmHg 43%
10:00 +6°C° 0 mm 2 mps 469 mmHg 33%
11:00 +8°C° 0 mm 2 mps 470 mmHg 24%
12:00 +9°C° 0 mm 3 mps 470 mmHg 21%
13:00 +10°C° 0 mm 3 mps 470 mmHg 18%
14:00 +12°C° 0 mm 4 mps 470 mmHg 15%
15:00 +11°C° 0 mm 4 mps 470 mmHg 16%
16:00 +10°C° 0 mm 5 mps 469 mmHg 18%
17:00 +9°C° 0 mm 5 mps 468 mmHg 19%
18:00 +8°C° 0 mm 4 mps 468 mmHg 25%
19:00 +7°C° 0 mm 3 mps 467 mmHg 30%
20:00 +5°C° 0 mm 2 mps 466 mmHg 36%
21:00 +4°C° 0 mm 2 mps 466 mmHg 37%
22:00 +5°C° 0 mm 1 mps 465 mmHg 39%
23:00 +4°C° 0 mm 1 mps 465 mmHg 40%

Tomorrow, 15 July, Wednesday

Time Temperature Precipitation Wind Pressure Humidity
00:00 +4°C° 0 mm 1 mps 465 mmHg 39%
01:00 +3°C° 0 mm 1 mps 464 mmHg 37%
02:00 +3°C° 0 mm 1 mps 464 mmHg 36%
03:00 +2°C° 0 mm 1 mps 464 mmHg 34%
04:00 +1°C° 0 mm 2 mps 463 mmHg 33%
05:00 -1°C° 0 mm 2 mps 463 mmHg 31%
06:00 +1°C° 0 mm 2 mps 464 mmHg 30%
07:00 +2°C° 0 mm 2 mps 465 mmHg 29%
08:00 +3°C° 0 mm 2 mps 466 mmHg 28%
09:00 +5°C° 0 mm 2 mps 467 mmHg 23%
10:00 +7°C° 0 mm 2 mps 468 mmHg 17%
11:00 +9°C° 0 mm 2 mps 469 mmHg 12%
12:00 +12°C° 0 mm 2 mps 470 mmHg 11%
13:00 +13°C° 0 mm 2 mps 470 mmHg 10%
14:00 +13°C° 0 mm 3 mps 470 mmHg 9%
15:00 +13°C° 0 mm 3 mps 470 mmHg 10%
16:00 +12°C° 0 mm 3 mps 469 mmHg 11%
17:00 +12°C° 0 mm 3 mps 469 mmHg 12%
18:00 +10°C° 0 mm 3 mps 468 mmHg 16%
19:00 +8°C° 0 mm 2 mps 467 mmHg 19%
20:00 +6°C° 0 mm 2 mps 466 mmHg 23%
21:00 +6°C° 0 mm 1 mps 465 mmHg 23%
22:00 +5°C° 0 mm 1 mps 465 mmHg 24%
23:00 +4°C° 0 mm 1 mps 465 mmHg 24%

Day after tomorrow, 16 July, Thursday

Time Temperature Precipitation Wind Pressure Humidity
00:00 +4°C° 0 mm 1 mps 464 mmHg 24%
01:00 +3°C° 0 mm 1 mps 464 mmHg 25%
02:00 +2°C° 0 mm 2 mps 464 mmHg 25%
03:00 +2°C° 0 mm 1 mps 463 mmHg 24%
04:00 +2°C° 0 mm 1 mps 463 mmHg 24%
05:00 +1°C° 0 mm 1 mps 463 mmHg 23%
06:00 +2°C° 0 mm 2 mps 464 mmHg 22%
07:00 +3°C° 0 mm 2 mps 465 mmHg 22%
08:00 +4°C° 0 mm 2 mps 466 mmHg 21%
09:00 +6°C° 0 mm 2 mps 468 mmHg 18%
10:00 +8°C° 0 mm 2 mps 469 mmHg 15%
11:00 +12°C° 0 mm 1 mps 471 mmHg 12%
12:00 +13°C° 0 mm 2 mps 471 mmHg 11%
13:00 +14°C° 0 mm 2 mps 471 mmHg 10%
14:00 +15°C° 0 mm 2 mps 471 mmHg 9%
15:00 +15°C° 0 mm 2 mps 471 mmHg 10%
16:00 +14°C° 0 mm 2 mps 470 mmHg 11%
17:00 +14°C° 0 mm 2 mps 470 mmHg 12%
18:00 +12°C° 0 mm 2 mps 469 mmHg 18%
19:00 +10°C° 0 mm 1 mps 468 mmHg 23%
20:00 +8°C° 0 mm 1 mps 467 mmHg 29%
21:00 +7°C° 0 mm 1 mps 466 mmHg 30%
22:00 +5°C° 0 mm 0 mps 466 mmHg 31%
23:00 +4°C° 0 mm 0 mps 465 mmHg 31%

17 July, Friday

Time Temperature Precipitation Wind Pressure Humidity
00:00 +4°C° 0 mm 0 mps 465 mmHg 31%
01:00 +3°C° 0 mm 0 mps 464 mmHg 31%
02:00 +3°C° 0 mm 0 mps 464 mmHg 30%
03:00 +2°C° 0 mm 0 mps 463 mmHg 29%
04:00 +2°C° 0 mm 0 mps 463 mmHg 28%
05:00 +2°C° 0 mm 1 mps 462 mmHg 27%
06:00 +3°C° 0 mm 1 mps 464 mmHg 27%
07:00 +4°C° 0 mm 1 mps 465 mmHg 26%
08:00 +5°C° 0 mm 1 mps 466 mmHg 26%
09:00 +8°C° 0 mm 1 mps 467 mmHg 21%
10:00 +10°C° 0 mm 1 mps 469 mmHg 16%
11:00 +12°C° 0 mm 1 mps 470 mmHg 11%
12:00 +13°C° 0 mm 1 mps 470 mmHg 11%
13:00 +14°C° 0 mm 1 mps 470 mmHg 10%
14:00 +15°C° 0 mm 2 mps 470 mmHg 10%
15:00 +15°C° 0 mm 2 mps 470 mmHg 12%
16:00 +15°C° 0 mm 2 mps 470 mmHg 13%
17:00 +14°C° 0 mm 2 mps 469 mmHg 15%
18:00 +12°C° 0 mm 2 mps 468 mmHg 22%
19:00 +9°C° 0 mm 2 mps 467 mmHg 29%
20:00 +8°C° 0 mm 1 mps 466 mmHg 35%
21:00 +8°C° 0 mm 1 mps 466 mmHg 36%
22:00 +7°C° 0 mm 1 mps 465 mmHg 36%
23:00 +6°C° 0 mm 1 mps 465 mmHg 36%

18 July, Saturday

Time Temperature Precipitation Wind Pressure Humidity
00:00 +6°C° 0 mm 1 mps 464 mmHg 33%
01:00 +5°C° 0 mm 1 mps 464 mmHg 31%
02:00 +4°C° 0 mm 1 mps 463 mmHg 28%
03:00 +4°C° 0 mm 1 mps 463 mmHg 27%
04:00 +3°C° 0 mm 1 mps 462 mmHg 26%
05:00 +3°C° 0 mm 1 mps 462 mmHg 24%
06:00 +4°C° 0 mm 1 mps 463 mmHg 24%
07:00 +5°C° 0 mm 1 mps 464 mmHg 24%
08:00 +6°C° 0 mm 1 mps 466 mmHg 24%
09:00 +9°C° 0 mm 1 mps 467 mmHg 20%
10:00 +11°C° 0 mm 1 mps 469 mmHg 15%
11:00 +13°C° 0 mm 1 mps 470 mmHg 10%
12:00 +14°C° 0 mm 1 mps 470 mmHg 10%
13:00 +15°C° 0 mm 2 mps 470 mmHg 9%
14:00 +16°C° 0 mm 2 mps 470 mmHg 8%
15:00 +16°C° 0 mm 2 mps 470 mmHg 10%
16:00 +16°C° 0 mm 3 mps 469 mmHg 12%
17:00 +14°C° 0 mm 3 mps 469 mmHg 13%
18:00 +13°C° 0 mm 2 mps 468 mmHg 21%
19:00 +10°C° 0 mm 2 mps 467 mmHg 29%
20:00 +9°C° 0 mm 1 mps 466 mmHg 37%
21:00 +8°C° 0 mm 1 mps 466 mmHg 37%
22:00 +8°C° 0 mm 1 mps 466 mmHg 37%
23:00 +7°C° 0 mm 1 mps 465 mmHg 38%

19 July, Sunday

Time Temperature Precipitation Wind Pressure Humidity
00:00 +7°C° 0 mm 1 mps 465 mmHg 36%
01:00 +6°C° 0 mm 1 mps 464 mmHg 34%
02:00 +5°C° 0 mm 1 mps 464 mmHg 32%
03:00 +5°C° 0 mm 1 mps 463 mmHg 32%
04:00 +4°C° 0 mm 1 mps 463 mmHg 31%
05:00 +4°C° 0 mm 1 mps 463 mmHg 30%
06:00 +5°C° 0 mm 1 mps 464 mmHg 29%
07:00 +6°C° 0 mm 1 mps 465 mmHg 28%
08:00 +7°C° 0 mm 1 mps 466 mmHg 27%
09:00 +10°C° 0 mm 1 mps 468 mmHg 23%
10:00 +12°C° 0 mm 1 mps 469 mmHg 18%
11:00 +14°C° 0 mm 1 mps 470 mmHg 14%
12:00 +15°C° 0 mm 1 mps 470 mmHg 14%
13:00 +16°C° 0 mm 1 mps 470 mmHg 13%
14:00 +17°C° 0 mm 2 mps 470 mmHg 12%
15:00 +16°C° 0 mm 2 mps 470 mmHg 13%
16:00 +16°C° 0 mm 2 mps 470 mmHg 15%
17:00 +16°C° 0 mm 3 mps 469 mmHg 16%
18:00 +14°C° 0 mm 2 mps 468 mmHg 24%
19:00 +12°C° 0 mm 1 mps 467 mmHg 32%
20:00 +10°C° 0 mm 1 mps 466 mmHg 40%
21:00 +9°C° 0 mm 1 mps 466 mmHg 41%
22:00 +8°C° 0 mm 1 mps 466 mmHg 42%
23:00 +8°C° 0 mm 1 mps 465 mmHg 43%
Show more